Location: Lecco
(45.8566°N, 9.3977°E)
Time: 10:02:56
(UTC+02:00)

ISS - Pass Details

Date: 20 July 2018
Orbit: 402 x 408 km, 51.6° (Epoch: 19 July)

Event Time Altitude Azimuth Distance (km) Brightness Sun altitude
Rises 22:08:01 0° 216° (SW) 2,306 -0.1 -9.5°
Reaches altitude 10° 22:10:12 10° 206° (SSW) 1,452 -1.2 -9.8°
Maximum altitude 22:13:08 32° 141° (SE) 720 -3.1 -10.2°
Drops below altitude 10° 22:16:07 10° 77° (ENE) 1,464 -1.3 -10.5°
Sets 22:18:19 0° 67° (ENE) 2,328 -0.2 -10.8°
